Location: Peterborough
(44.3091°N, 78.3197°W)
Time: 17:38:02
(UTC-05:00)

Tiros 1 despin weight - Pass Details

Date: 01 December 2023
Orbit: 581 x 624 km, 48.2° (Epoch: 24 February)

Event Time Altitude Azimuth Distance (km) Brightness Sun altitude
Rises 19:42:35 0° 234° (SW) 2,791 ? -32.8°
Reaches altitude 10° 19:44:52 10° 231° (SW) 1,891 ? -33.2°
Enters shadow 19:45:38 15° 229° (SW) 1,596 ? -33.3°
